Time,TemperatureF,DewpointF,PressureIn,WindDirection,WindDirectionDegrees,WindSpeedMPH,WindSpeedGustMPH,Humidity,HourlyPrecipIn,Conditions,Clouds,dailyrainin,SoftwareType,DateUTC
2013-03-13 00:00:00,32.5,19.0,29.96,NW,314,0.0,0.0,57,0.00,,CLR,0.00,VWS V13.01,2013-03-13 04:00:00,
2013-03-13 00:05:00,32.7,19.2,29.96,North,7,2.8,2.8,57,0.00,,CLR,0.00,VWS V13.01,2013-03-13 04:05:00,
2013-03-13 00:10:00,33.3,20.5,29.96,North,2,3.4,4.5,59,0.00,,CLR,0.00,VWS V13.01,2013-03-13 04:10:00,
2013-03-13 00:15:00,33.6,20.4,29.96,North,3,0.0,0.0,58,0.00,,CLR,0.00,VWS V13.01,2013-03-13 04:15:00,
2013-03-13 00:20:00,33.6,20.4,29.96,North,3,0.0,0.0,58,0.00,,CLR,0.00,VWS V13.01,2013-03-13 04:20:00,
2013-03-13 00:25:00,33.6,20.4,29.96,North,3,0.0,0.0,58,0.00,,CLR,0.00,VWS V13.01,2013-03-13 04:25:00,
2013-03-13 00:30:00,33.3,19.7,29.96,North,3,0.0,0.0,57,0.00,,CLR,0.00,VWS V13.01,2013-03-13 04:30:00,
2013-03-13 00:35:00,32.9,19.4,29.96,West,269,0.0,4.5,57,0.00,,CLR,0.00,VWS V13.01,2013-03-13 04:35:00,
2013-03-13 00:40:00,32.7,19.2,29.96,North,3,3.4,4.5,57,0.00,,CLR,0.00,VWS V13.01,2013-03-13 04:40:00,
2013-03-13 00:45:00,33.3,20.1,29.96,West,273,3.4,3.4,58,0.00,,CLR,0.00,VWS V13.01,2013-03-13 04:45:00,
2013-03-13 00:50:00,34.5,20.9,29.96,North,3,2.8,4.5,57,0.00,,CLR,0.00,VWS V13.01,2013-03-13 04:50:00,
2013-03-13 00:55:00,35.1,21.0,29.96,North,4,3.4,3.9,56,0.00,,CLR,0.00,VWS V13.01,2013-03-13 04:55:00,
2013-03-13 01:00:00,35.4,20.9,29.96,North,5,4.5,5.0,55,0.00,,CLR,0.00,VWS V13.01,2013-03-13 05:00:00,
2013-03-13 01:05:00,35.8,20.8,29.96,North,2,3.9,4.5,54,0.00,,CLR,0.00,VWS V13.01,2013-03-13 05:05:00,
2013-03-13 01:10:00,36.1,21.1,29.96,North,357,2.8,4.5,54,0.00,,CLR,0.00,VWS V13.01,2013-03-13 05:10:00,
2013-03-13 01:15:00,36.1,21.1,29.96,North,357,2.8,3.9,54,0.00,,CLR,0.00,VWS V13.01,2013-03-13 05:15:00,
2013-03-13 01:20:00,36.0,21.0,29.96,NNE,18,2.8,3.9,54,0.00,,CLR,0.00,VWS V13.01,2013-03-13 05:20:00,
2013-03-13 01:25:00,36.1,21.1,29.96,North,357,0.0,0.0,54,0.00,,CLR,0.00,VWS V13.01,2013-03-13 05:25:00,
2013-03-13 01:30:00,36.0,21.0,29.96,NNW,348,0.0,0.0,54,0.00,,CLR,0.00,VWS V13.01,2013-03-13 05:30:00,
2013-03-13 01:35:00,35.6,20.6,29.96,North,6,0.0,0.0,54,0.00,,CLR,0.00,VWS V13.01,2013-03-13 05:35:00,
2013-03-13 01:40:00,35.6,20.6,29.96,NNE,24,0.0,0.0,54,0.00,,CLR,0.00,VWS V13.01,2013-03-13 05:40:00,
2013-03-13 01:45:00,35.2,20.3,29.96,NNE,24,0.0,0.0,54,0.00,,CLR,0.00,VWS V13.01,2013-03-13 05:45:00,
2013-03-13 01:50:00,34.9,19.9,29.96,NNE,24,0.0,0.0,54,0.00,,CLR,0.00,VWS V13.01,2013-03-13 05:50:00,
2013-03-13 01:55:00,34.3,19.4,29.96,NNE,24,0.0,0.0,54,0.00,,CLR,0.00,VWS V13.01,2013-03-13 05:55:00,
2013-03-13 02:00:00,33.8,18.9,29.96,NNE,24,0.0,0.0,54,0.00,,CLR,0.00,VWS V13.01,2013-03-13 06:00:00,
2013-03-13 02:05:00,33.3,18.4,29.96,NNE,24,0.0,0.0,54,0.00,,CLR,0.00,VWS V13.01,2013-03-13 06:05:00,
2013-03-13 02:10:00,32.9,18.5,29.96,NNE,24,0.0,0.0,55,0.00,,CLR,0.00,VWS V13.01,2013-03-13 06:10:00,
2013-03-13 02:15:00,32.5,18.2,29.96,NNE,24,0.0,0.0,55,0.00,,CLR,0.00,VWS V13.01,2013-03-13 06:15:00,
2013-03-13 02:20:00,32.2,17.8,29.96,NNE,24,0.0,0.0,55,0.00,,CLR,0.00,VWS V13.01,2013-03-13 06:20:00,
2013-03-13 02:25:00,31.8,17.5,29.96,NW,304,0.0,0.0,55,0.00,,CLR,0.00,VWS V13.01,2013-03-13 06:25:00,
2013-03-13 02:30:00,31.5,17.2,29.96,NW,304,0.0,0.0,55,0.00,,CLR,0.00,VWS V13.01,2013-03-13 06:30:00,
2013-03-13 02:35:00,31.3,17.0,29.96,ENE,76,0.0,2.8,55,0.00,,CLR,0.00,VWS V13.01,2013-03-13 06:35:00,
2013-03-13 02:40:00,31.3,17.4,29.93,ENE,76,0.0,0.0,56,0.00,,CLR,0.00,VWS V13.01,2013-03-13 06:40:00,
2013-03-13 02:45:00,31.5,17.6,29.93,SW,220,0.0,0.0,56,0.00,,CLR,0.00,VWS V13.01,2013-03-13 06:45:00,
2013-03-13 02:50:00,31.5,17.6,29.93,SW,235,0.0,0.0,56,0.00,,CLR,0.00,VWS V13.01,2013-03-13 06:50:00,
2013-03-13 02:55:00,31.1,17.2,29.93,SW,235,0.0,0.0,56,0.00,,CLR,0.00,VWS V13.01,2013-03-13 06:55:00,
2013-03-13 03:00:00,31.1,18.1,29.93,SW,235,0.0,0.0,58,0.00,,CLR,0.00,VWS V13.01,2013-03-13 07:00:00,
2013-03-13 03:05:00,31.5,18.4,29.93,WSW,237,0.0,0.0,58,0.00,,CLR,0.00,VWS V13.01,2013-03-13 07:05:00,
2013-03-13 03:10:00,31.5,18.0,29.93,WSW,237,0.0,0.0,57,0.00,,CLR,0.00,VWS V13.01,2013-03-13 07:10:00,
2013-03-13 03:15:00,31.1,17.7,29.93,WSW,237,0.0,0.0,57,0.00,,CLR,0.00,VWS V13.01,2013-03-13 07:15:00,
2013-03-13 03:20:00,30.9,17.5,29.93,West,260,4.5,4.5,57,0.00,,CLR,0.00,VWS V13.01,2013-03-13 07:20:00,
2013-03-13 03:25:00,30.6,17.1,29.93,North,353,2.8,2.8,57,0.00,,CLR,0.00,VWS V13.01,2013-03-13 07:25:00,
2013-03-13 03:30:00,30.2,16.8,29.93,North,353,0.0,0.0,57,0.00,,CLR,0.00,VWS V13.01,2013-03-13 07:30:00,
2013-03-13 03:35:00,30.0,17.0,29.93,East,91,3.4,3.4,58,0.00,,CLR,0.00,VWS V13.01,2013-03-13 07:35:00,
2013-03-13 03:40:00,30.0,17.8,29.93,SE,138,3.4,3.9,60,0.00,,CLR,0.00,VWS V13.01,2013-03-13 07:40:00,
2013-03-13 03:45:00,30.2,18.4,29.93,SSE,160,0.0,2.8,61,0.00,,CLR,0.00,VWS V13.01,2013-03-13 07:45:00,
2013-03-13 03:50:00,30.2,17.6,29.93,SSE,160,0.0,0.0,59,0.00,,CLR,0.00,VWS V13.01,2013-03-13 07:50:00,
2013-03-13 03:55:00,30.2,17.6,29.90,WNW,289,0.0,3.9,59,0.00,,CLR,0.00,VWS V13.01,2013-03-13 07:55:00,
2013-03-13 04:00:00,29.8,17.3,29.90,WNW,294,3.4,3.4,59,0.00,,CLR,0.00,VWS V13.01,2013-03-13 08:00:00,
2013-03-13 04:05:00,29.7,17.5,29.90,West,261,0.0,0.0,60,0.00,,CLR,0.00,VWS V13.01,2013-03-13 08:05:00,
2013-03-13 04:10:00,29.5,17.3,29.90,North,353,0.0,3.9,60,0.00,,CLR,0.00,VWS V13.01,2013-03-13 08:10:00,
2013-03-13 04:15:00,29.3,17.5,29.90,WSW,246,0.0,3.4,61,0.00,,CLR,0.00,VWS V13.01,2013-03-13 08:15:00,
2013-03-13 04:20:00,29.1,18.5,29.90,SSE,151,3.4,4.5,64,0.00,,CLR,0.00,VWS V13.01,2013-03-13 08:20:00,
2013-03-13 04:25:00,29.3,19.0,29.90,SSE,157,2.8,3.4,65,0.00,,CLR,0.00,VWS V13.01,2013-03-13 08:25:00,
2013-03-13 04:30:00,29.5,19.2,29.90,South,179,0.0,2.8,65,0.00,,CLR,0.00,VWS V13.01,2013-03-13 08:30:00,
2013-03-13 04:35:00,29.5,19.2,29.90,South,180,0.0,0.0,65,0.00,,CLR,0.00,VWS V13.01,2013-03-13 08:35:00,
2013-03-13 04:40:00,29.5,19.2,29.90,South,176,0.0,0.0,65,0.00,,CLR,0.00,VWS V13.01,2013-03-13 08:40:00,
2013-03-13 04:45:00,29.5,19.2,29.90,South,176,0.0,0.0,65,0.00,,CLR,0.00,VWS V13.01,2013-03-13 08:45:00,
2013-03-13 04:50:00,29.7,19.7,29.90,SSE,165,2.8,4.5,66,0.00,,CLR,0.00,VWS V13.01,2013-03-13 08:50:00,
2013-03-13 04:55:00,30.2,20.2,29.90,South,179,0.0,3.9,66,0.00,,CLR,0.00,VWS V13.01,2013-03-13 08:55:00,
2013-03-13 05:00:00,30.2,19.9,29.90,WSW,239,0.0,0.0,65,0.00,,CLR,0.00,VWS V13.01,2013-03-13 09:00:00,
2013-03-13 05:05:00,30.0,19.7,29.90,WSW,239,0.0,0.0,65,0.00,,CLR,0.00,VWS V13.01,2013-03-13 09:05:00,
2013-03-13 05:10:00,30.0,19.7,29.90,WSW,239,0.0,0.0,65,0.00,,CLR,0.00,VWS V13.01,2013-03-13 09:10:00,
2013-03-13 05:15:00,29.7,19.4,29.90,West,265,0.0,0.0,65,0.00,,CLR,0.00,VWS V13.01,2013-03-13 09:15:00,
2013-03-13 05:20:00,29.5,19.2,29.90,West,265,0.0,3.4,65,0.00,,CLR,0.00,VWS V13.01,2013-03-13 09:20:00,
2013-03-13 05:25:00,29.1,18.8,29.90,West,265,0.0,0.0,65,0.00,,CLR,0.00,VWS V13.01,2013-03-13 09:25:00,
2013-03-13 05:30:00,28.9,18.7,29.90,West,265,0.0,0.0,65,0.00,,CLR,0.00,VWS V13.01,2013-03-13 09:30:00,
2013-03-13 05:35:00,28.8,18.5,29.90,SE,129,0.0,0.0,65,0.00,,CLR,0.00,VWS V13.01,2013-03-13 09:35:00,
2013-03-13 05:40:00,28.8,18.5,29.93,SE,129,0.0,0.0,65,0.00,,CLR,0.00,VWS V13.01,2013-03-13 09:40:00,
2013-03-13 05:45:00,28.6,18.3,29.93,SE,129,0.0,0.0,65,0.00,,CLR,0.00,VWS V13.01,2013-03-13 09:45:00,
2013-03-13 05:50:00,28.4,18.5,29.93,SE,129,0.0,0.0,66,0.00,,CLR,0.00,VWS V13.01,2013-03-13 09:50:00,
2013-03-13 05:55:00,28.4,18.5,29.93,SE,129,0.0,0.0,66,0.00,,CLR,0.00,VWS V13.01,2013-03-13 09:55:00,
2013-03-13 06:00:00,28.2,18.3,29.93,SE,129,0.0,0.0,66,0.00,,CLR,0.00,VWS V13.01,2013-03-13 10:00:00,
2013-03-13 06:05:00,28.4,18.5,29.93,SSE,147,2.8,3.4,66,0.00,,CLR,0.00,VWS V13.01,2013-03-13 10:05:00,
2013-03-13 06:10:00,28.6,18.7,29.93,SSE,149,0.0,0.0,66,0.00,,CLR,0.00,VWS V13.01,2013-03-13 10:10:00,
2013-03-13 06:15:00,28.6,18.7,29.93,SSE,149,0.0,0.0,66,0.00,,CLR,0.00,VWS V13.01,2013-03-13 10:15:00,
2013-03-13 06:20:00,28.6,18.7,29.93,SE,146,0.0,0.0,66,0.00,,CLR,0.00,VWS V13.01,2013-03-13 10:20:00,
2013-03-13 06:25:00,28.6,18.7,29.93,SSE,151,3.9,3.9,66,0.00,,CLR,0.00,VWS V13.01,2013-03-13 10:25:00,
2013-03-13 06:30:00,28.6,18.7,29.93,North,4,4.5,4.5,66,0.00,,CLR,0.00,VWS V13.01,2013-03-13 10:30:00,
2013-03-13 06:35:00,28.8,18.9,29.93,North,11,0.0,0.0,66,0.00,,SCT050,0.00,VWS V13.01,2013-03-13 10:35:00,
2013-03-13 06:40:00,28.6,18.7,29.93,North,4,0.0,0.0,66,0.00,,SCT050,0.00,VWS V13.01,2013-03-13 10:40:00,
2013-03-13 06:45:00,28.4,18.9,29.93,North,1,0.0,0.0,67,0.00,,SCT050,0.00,VWS V13.01,2013-03-13 10:45:00,
2013-03-13 06:50:00,28.2,18.7,29.93,SE,126,2.8,5.0,67,0.00,,SCT050,0.00,VWS V13.01,2013-03-13 10:50:00,
2013-03-13 06:55:00,28.2,18.7,29.93,ENE,70,0.0,0.0,67,0.00,,SCT050,0.00,VWS V13.01,2013-03-13 10:55:00,
2013-03-13 07:00:00,28.6,19.0,29.93,NNE,31,0.0,0.0,67,0.00,,SCT050,0.00,VWS V13.01,2013-03-13 11:00:00,
2013-03-13 07:05:00,28.8,19.2,29.93,NNE,31,0.0,0.0,67,0.00,,SCT050,0.00,VWS V13.01,2013-03-13 11:05:00,
2013-03-13 07:10:00,28.9,19.4,29.93,NNE,31,0.0,0.0,67,0.00,,SCT050,0.00,VWS V13.01,2013-03-13 11:10:00,
2013-03-13 07:15:00,29.1,19.5,29.93,ESE,112,0.0,3.9,67,0.00,,CLR,0.00,VWS V13.01,2013-03-13 11:15:00,
2013-03-13 07:20:00,29.5,19.9,29.93,SE,129,0.0,0.0,67,0.00,,CLR,0.00,VWS V13.01,2013-03-13 11:20:00,
2013-03-13 07:25:00,30.0,20.8,29.93,ESE,110,0.0,0.0,68,0.00,,CLR,0.00,VWS V13.01,2013-03-13 11:25:00,
2013-03-13 07:30:00,30.7,21.4,29.93,SE,129,3.9,6.7,68,0.00,,CLR,0.00,VWS V13.01,2013-03-13 11:30:00,
2013-03-13 07:35:00,31.5,21.8,29.93,SSE,151,2.8,3.4,67,0.00,,CLR,0.00,VWS V13.01,2013-03-13 11:35:00,
2013-03-13 07:40:00,31.8,22.1,29.93,South,173,0.0,0.0,67,0.00,,CLR,0.00,VWS V13.01,2013-03-13 11:40:00,
2013-03-13 07:45:00,32.2,22.5,29.93,South,173,0.0,0.0,67,0.00,,CLR,0.00,VWS V13.01,2013-03-13 11:45:00,
2013-03-13 07:50:00,32.5,22.5,29.93,SSE,166,0.0,0.0,66,0.00,,CLR,0.00,VWS V13.01,2013-03-13 11:50:00,
2013-03-13 07:55:00,32.5,22.5,29.93,SE,134,0.0,4.5,66,0.00,,CLR,0.00,VWS V13.01,2013-03-13 11:55:00,
2013-03-13 08:00:00,32.9,22.4,29.93,SE,134,2.8,2.8,65,0.00,,CLR,0.00,VWS V13.01,2013-03-13 12:00:00,
2013-03-13 08:05:00,33.1,22.6,29.93,SE,134,0.0,0.0,65,0.00,,CLR,0.00,VWS V13.01,2013-03-13 12:05:00,
2013-03-13 08:10:00,33.3,22.8,29.93,East,101,0.0,0.0,65,0.00,,CLR,0.00,VWS V13.01,2013-03-13 12:10:00,
2013-03-13 08:15:00,33.8,23.3,29.93,ESE,102,0.0,0.0,65,0.00,,CLR,0.00,VWS V13.01,2013-03-13 12:15:00,
2013-03-13 08:20:00,34.5,23.6,29.93,SW,230,0.0,0.0,64,0.00,,CLR,0.00,VWS V13.01,2013-03-13 12:20:00,
2013-03-13 08:25:00,34.9,24.0,29.93,SW,234,0.0,0.0,64,0.00,,CLR,0.00,VWS V13.01,2013-03-13 12:25:00,
2013-03-13 08:30:00,35.4,24.5,29.93,SW,235,0.0,0.0,64,0.00,,CLR,0.00,VWS V13.01,2013-03-13 12:30:00,
2013-03-13 08:35:00,35.8,24.4,29.93,West,265,4.5,4.5,63,0.00,,CLR,0.00,VWS V13.01,2013-03-13 12:35:00,
2013-03-13 08:40:00,36.7,24.9,29.93,West,263,5.0,6.7,62,0.00,,CLR,0.00,VWS V13.01,2013-03-13 12:40:00,
2013-03-13 08:45:00,37.4,23.1,29.93,WSW,251,6.7,6.7,56,0.00,,CLR,0.00,VWS V13.01,2013-03-13 12:45:00,
2013-03-13 08:50:00,38.5,23.7,29.93,WSW,252,6.2,8.4,55,0.00,,CLR,0.00,VWS V13.01,2013-03-13 12:50:00,
2013-03-13 08:55:00,39.4,24.1,29.93,West,264,7.3,7.8,54,0.00,,CLR,0.00,VWS V13.01,2013-03-13 12:55:00,
2013-03-13 09:00:00,40.1,24.4,29.93,WSW,239,5.0,10.1,53,0.00,,CLR,0.00,VWS V13.01,2013-03-13 13:00:00,
2013-03-13 09:05:00,40.8,24.6,29.93,WSW,241,5.0,7.8,52,0.00,,CLR,0.00,VWS V13.01,2013-03-13 13:05:00,
2013-03-13 09:10:00,41.5,25.2,29.93,SW,235,7.8,7.8,52,0.00,,CLR,0.00,VWS V13.01,2013-03-13 13:10:00,
2013-03-13 09:15:00,42.1,25.7,29.93,West,264,3.9,6.2,52,0.00,,CLR,0.00,VWS V13.01,2013-03-13 13:15:00,
2013-03-13 09:20:00,42.6,25.3,29.93,WNW,284,6.7,10.1,50,0.00,,CLR,0.00,VWS V13.01,2013-03-13 13:20:00,
2013-03-13 09:25:00,43.3,25.5,29.93,WSW,248,6.7,6.7,49,0.00,,CLR,0.00,VWS V13.01,2013-03-13 13:25:00,
2013-03-13 09:30:00,43.7,25.8,29.93,WSW,244,7.3,7.8,49,0.00,,CLR,0.00,VWS V13.01,2013-03-13 13:30:00,
2013-03-13 09:35:00,43.9,26.0,29.93,West,260,7.8,7.8,49,0.00,,CLR,0.00,VWS V13.01,2013-03-13 13:35:00,
2013-03-13 09:41:00,44.1,25.1,29.93,WSW,237,7.8,10.1,47,0.00,,CLR,0.00,VWS V13.01,2013-03-13 13:41:00,
2013-03-13 09:46:00,44.2,25.3,29.93,SSW,212,7.3,10.9,47,0.00,,CLR,0.00,VWS V13.01,2013-03-13 13:46:00,
2013-03-13 09:51:00,44.2,25.3,29.93,SW,234,7.8,10.3,47,0.00,,CLR,0.00,VWS V13.01,2013-03-13 13:51:00,
2013-03-13 09:56:00,44.4,25.5,29.93,West,270,10.9,10.9,47,0.00,,SCT050,0.00,VWS V13.01,2013-03-13 13:56:00,
2013-03-13 10:01:00,45.1,25.6,29.93,WSW,254,7.3,10.1,46,0.00,,SCT050,0.00,VWS V13.01,2013-03-13 14:01:00,
2013-03-13 10:06:00,45.5,25.9,29.93,SW,224,7.8,7.8,46,0.00,,SCT050,0.00,VWS V13.01,2013-03-13 14:06:00,
2013-03-13 10:11:00,45.9,26.3,29.93,WSW,243,5.0,10.9,46,0.00,,SCT050,0.00,VWS V13.01,2013-03-13 14:11:00,
2013-03-13 10:16:00,45.9,26.3,29.93,WSW,249,6.7,7.8,46,0.00,,SCT060,0.00,VWS V13.01,2013-03-13 14:16:00,
2013-03-13 10:21:00,46.2,26.6,29.93,West,276,5.0,10.9,46,0.00,,SCT060,0.00,VWS V13.01,2013-03-13 14:21:00,
2013-03-13 10:26:00,45.9,26.3,29.93,WSW,247,9.5,12.6,46,0.00,,SCT060,0.00,VWS V13.01,2013-03-13 14:26:00,
2013-03-13 10:31:00,44.8,24.2,29.93,NW,309,7.3,9.5,44,0.00,,SCT060,0.00,VWS V13.01,2013-03-13 14:31:00,
2013-03-13 10:36:00,44.2,23.7,29.93,WSW,244,12.0,12.0,44,0.00,,SCT060,0.00,VWS V13.01,2013-03-13 14:36:00,
2013-03-13 10:41:00,43.5,23.1,29.93,West,268,12.6,15.4,44,0.00,,SCT060,0.00,VWS V13.01,2013-03-13 14:41:00,
2013-03-13 10:46:00,42.6,22.8,29.93,West,280,7.3,10.3,45,0.00,,SCT060,0.00,VWS V13.01,2013-03-13 14:46:00,
2013-03-13 10:50:00,42.1,22.3,29.93,WSW,248,10.9,15.9,45,0.00,,SCT060,0.00,VWS V13.01,2013-03-13 14:50:00,
2013-03-13 10:55:00,41.5,21.8,29.93,West,279,6.7,13.7,45,0.00,,SCT060,0.00,VWS V13.01,2013-03-13 14:55:00,
2013-03-13 11:01:00,41.5,21.8,29.93,WNW,291,12.0,19.3,45,0.00,,SCT060,0.00,VWS V13.01,2013-03-13 15:01:00,
2013-03-13 11:06:00,41.9,22.1,29.93,WSW,257,4.5,12.6,45,0.00,,BKN075,0.00,VWS V13.01,2013-03-13 15:06:00,
2013-03-13 11:11:00,43.7,23.2,29.93,West,268,7.8,12.6,44,0.00,,BKN075,0.00,VWS V13.01,2013-03-13 15:11:00,
2013-03-13 11:16:00,45.0,24.4,29.93,West,273,12.6,16.5,44,0.00,,OVC075,0.00,VWS V13.01,2013-03-13 15:16:00,
2013-03-13 11:21:00,44.8,24.2,29.93,West,274,7.8,13.1,44,0.00,,OVC075,0.00,VWS V13.01,2013-03-13 15:21:00,
2013-03-13 11:26:00,45.1,24.5,29.93,WSW,240,9.5,14.3,44,0.00,,OVC075,0.00,VWS V13.01,2013-03-13 15:26:00,
2013-03-13 11:31:00,45.7,25.0,29.93,West,272,16.5,16.5,44,0.00,,OVC075,0.00,VWS V13.01,2013-03-13 15:31:00,
2013-03-13 11:36:00,45.9,25.2,29.93,WSW,253,11.5,19.3,44,0.00,,OVC075,0.00,VWS V13.01,2013-03-13 15:36:00,
2013-03-13 11:41:00,45.3,24.7,29.93,West,266,10.3,10.3,44,0.00,,OVC075,0.00,VWS V13.01,2013-03-13 15:41:00,
2013-03-13 11:46:00,44.8,24.2,29.93,SW,231,6.7,13.1,44,0.00,,OVC075,0.00,VWS V13.01,2013-03-13 15:46:00,
2013-03-13 11:51:00,44.1,23.6,29.93,WSW,254,15.9,15.9,44,0.00,,OVC075,0.00,VWS V13.01,2013-03-13 15:51:00,
2013-03-13 11:56:00,43.7,23.2,29.93,West,273,10.1,16.5,44,0.00,,OVC075,0.00,VWS V13.01,2013-03-13 15:56:00,
2013-03-13 12:01:00,44.6,24.0,29.93,WSW,258,10.9,13.7,44,0.00,,OVC075,0.00,VWS V13.01,2013-03-13 16:01:00,
2013-03-13 12:06:00,46.2,25.5,29.93,WNW,301,4.5,10.1,44,0.00,,SCT075,0.00,VWS V13.01,2013-03-13 16:06:00,
2013-03-13 12:11:00,48.0,26.6,29.93,WSW,249,16.5,17.1,43,0.00,,SCT075,0.00,VWS V13.01,2013-03-13 16:11:00,
2013-03-13 12:16:00,48.6,27.1,29.93,West,273,9.5,15.9,43,0.00,,BKN065,0.00,VWS V13.01,2013-03-13 16:16:00,
2013-03-13 12:21:00,48.4,26.9,29.93,NNW,334,7.8,14.8,43,0.00,,BKN065,0.00,VWS V13.01,2013-03-13 16:21:00,
2013-03-13 12:26:00,48.6,27.1,29.93,West,270,7.3,10.1,43,0.00,,BKN065,0.00,VWS V13.01,2013-03-13 16:26:00,
2013-03-13 12:31:00,47.8,26.4,29.93,WNW,282,7.3,8.9,43,0.00,,BKN065,0.00,VWS V13.01,2013-03-13 16:31:00,
2013-03-13 12:36:00,46.9,25.6,29.93,West,273,7.3,10.1,43,0.00,,BKN055,0.00,VWS V13.01,2013-03-13 16:36:00,
2013-03-13 12:41:00,46.8,25.5,29.93,West,259,10.1,15.9,43,0.00,,BKN055,0.00,VWS V13.01,2013-03-13 16:41:00,
2013-03-13 12:46:00,46.9,25.6,29.93,West,262,10.3,10.3,43,0.00,,BKN055,0.00,VWS V13.01,2013-03-13 16:46:00,
2013-03-13 12:51:00,46.9,25.6,29.93,WSW,251,7.8,10.9,43,0.00,,BKN055,0.00,VWS V13.01,2013-03-13 16:51:00,
2013-03-13 12:56:00,46.9,25.6,29.90,West,263,10.9,13.1,43,0.00,,OVC070,0.00,VWS V13.01,2013-03-13 16:56:00,
2013-03-13 13:01:00,46.8,25.5,29.90,West,260,8.9,10.1,43,0.00,,OVC070,0.00,VWS V13.01,2013-03-13 17:01:00,
2013-03-13 13:06:00,46.6,25.3,29.90,WNW,290,13.1,13.7,43,0.00,,OVC070,0.00,VWS V13.01,2013-03-13 17:06:00,
2013-03-13 13:11:00,45.9,25.2,29.90,WSW,257,13.1,15.9,44,0.00,,OVC070,0.00,VWS V13.01,2013-03-13 17:11:00,
2013-03-13 13:16:00,45.3,24.7,29.90,West,268,13.7,15.4,44,0.00,,OVC070,0.00,VWS V13.01,2013-03-13 17:16:00,
2013-03-13 13:21:00,45.1,24.5,29.90,West,264,14.8,18.7,44,0.00,,OVC070,0.00,VWS V13.01,2013-03-13 17:21:00,
2013-03-13 13:26:00,44.8,24.2,29.90,WNW,284,12.6,13.7,44,0.00,,OVC070,0.00,VWS V13.01,2013-03-13 17:26:00,
2013-03-13 13:31:00,45.0,24.4,29.90,WSW,242,13.7,16.5,44,0.00,,OVC070,0.00,VWS V13.01,2013-03-13 17:31:00,
2013-03-13 13:36:00,45.9,25.2,29.90,WSW,248,8.4,22.9,44,0.00,,BKN085,0.00,VWS V13.01,2013-03-13 17:36:00,
2013-03-13 13:41:00,47.3,26.0,29.90,West,264,10.9,10.9,43,0.00,,BKN085,0.00,VWS V13.01,2013-03-13 17:41:00,
2013-03-13 13:46:00,47.3,26.0,29.90,SSW,211,15.4,18.7,43,0.00,,BKN085,0.00,VWS V13.01,2013-03-13 17:46:00,
2013-03-13 13:51:00,46.6,25.3,29.90,WNW,282,7.8,10.3,43,0.00,,BKN085,0.00,VWS V13.01,2013-03-13 17:51:00,
2013-03-13 13:56:00,46.4,25.1,29.90,NW,304,6.7,7.3,43,0.00,,BKN085,0.00,VWS V13.01,2013-03-13 17:56:00,
2013-03-13 14:01:00,46.4,25.1,29.90,West,259,12.6,12.6,43,0.00,,BKN085,0.00,VWS V13.01,2013-03-13 18:01:00,
2013-03-13 14:06:00,46.6,25.3,29.90,WSW,255,10.3,10.3,43,0.00,,SCT085,0.00,VWS V13.01,2013-03-13 18:06:00,
2013-03-13 14:11:00,46.9,25.6,29.90,West,272,6.7,10.1,43,0.00,,SCT085,0.00,VWS V13.01,2013-03-13 18:11:00,
2013-03-13 14:16:00,46.8,25.5,29.90,West,263,7.3,13.7,43,0.00,,SCT085,0.00,VWS V13.01,2013-03-13 18:16:00,
2013-03-13 14:21:00,46.0,25.4,29.90,SW,235,7.3,10.9,44,0.00,,SCT085,0.00,VWS V13.01,2013-03-13 18:21:00,
2013-03-13 14:26:00,45.5,24.9,29.90,West,259,7.3,10.3,44,0.00,,SCT085,0.00,VWS V13.01,2013-03-13 18:26:00,
2013-03-13 14:31:00,45.7,25.0,29.90,WNW,290,10.3,10.3,44,0.00,,SCT085,0.00,VWS V13.01,2013-03-13 18:31:00,
2013-03-13 14:36:00,46.0,25.4,29.90,WSW,255,8.4,13.1,44,0.00,,BKN110,0.00,VWS V13.01,2013-03-13 18:36:00,
2013-03-13 14:41:00,46.0,25.4,29.90,West,281,10.3,13.1,44,0.00,,BKN110,0.00,VWS V13.01,2013-03-13 18:41:00,
2013-03-13 14:46:00,46.4,25.1,29.90,NW,323,10.1,12.0,43,0.00,,BKN110,0.00,VWS V13.01,2013-03-13 18:46:00,
2013-03-13 14:51:00,46.4,25.1,29.90,WNW,292,10.1,13.7,43,0.00,,BKN110,0.00,VWS V13.01,2013-03-13 18:51:00,
2013-03-13 14:56:00,46.0,25.4,29.90,WNW,285,10.9,12.6,44,0.00,,OVC085,0.00,VWS V13.01,2013-03-13 18:56:00,
2013-03-13 15:01:00,45.9,25.2,29.90,SW,233,10.1,15.9,44,0.00,,OVC085,0.00,VWS V13.01,2013-03-13 19:01:00,
2013-03-13 15:06:00,45.5,24.9,29.90,WNW,287,13.1,13.7,44,0.00,,OVC085,0.00,VWS V13.01,2013-03-13 19:06:00,
2013-03-13 15:11:00,45.1,24.5,29.90,WNW,285,6.7,7.8,44,0.00,,OVC085,0.00,VWS V13.01,2013-03-13 19:11:00,
2013-03-13 15:15:00,44.8,24.2,29.90,WSW,248,6.7,10.3,44,0.00,,OVC085,0.00,VWS V13.01,2013-03-13 19:15:00,
2013-03-13 15:21:00,44.6,24.0,29.90,West,266,7.3,13.7,44,0.00,,OVC085,0.00,VWS V13.01,2013-03-13 19:21:00,
2013-03-13 15:26:00,44.1,23.6,29.90,West,272,18.7,24.0,44,0.00,,OVC085,0.00,VWS V13.01,2013-03-13 19:26:00,
2013-03-13 15:31:00,42.1,22.3,29.90,West,268,24.6,24.6,45,0.00,,OVC085,0.00,VWS V13.01,2013-03-13 19:31:00,
2013-03-13 15:36:00,40.1,20.5,29.90,West,271,19.3,19.3,45,0.00,,OVC110,0.00,VWS V13.01,2013-03-13 19:36:00,
2013-03-13 15:41:00,39.9,20.3,29.90,NW,305,9.5,15.4,45,0.00,,OVC110,0.00,VWS V13.01,2013-03-13 19:41:00,
2013-03-13 15:46:00,40.3,20.6,29.90,North,0,3.9,12.6,45,0.00,,OVC110,0.00,VWS V13.01,2013-03-13 19:46:00,
2013-03-13 15:51:00,42.1,22.3,29.90,West,273,10.3,12.6,45,0.00,,OVC110,0.00,VWS V13.01,2013-03-13 19:51:00,
2013-03-13 15:56:00,43.5,23.1,29.90,WSW,257,13.1,18.7,44,0.00,,OVC110,0.00,VWS V13.01,2013-03-13 19:56:00,
2013-03-13 16:01:00,43.7,23.2,29.90,West,262,21.0,21.3,44,0.00,,OVC085,0.00,VWS V13.01,2013-03-13 20:01:00,
2013-03-13 16:06:00,44.2,23.7,29.90,West,275,12.6,15.9,44,0.00,,OVC085,0.00,VWS V13.01,2013-03-13 20:06:00,
2013-03-13 16:11:00,44.4,23.9,29.90,West,276,13.1,21.0,44,0.00,,OVC085,0.00,VWS V13.01,2013-03-13 20:11:00,
2013-03-13 16:16:00,44.6,24.0,29.90,West,263,15.9,19.3,44,0.00,,OVC065,0.00,VWS V13.01,2013-03-13 20:16:00,
2013-03-13 16:21:00,44.8,24.2,29.90,NW,313,15.9,18.7,44,0.00,,OVC065,0.00,VWS V13.01,2013-03-13 20:21:00,
2013-03-13 16:26:00,44.6,24.0,29.90,WSW,245,15.9,15.9,44,0.00,,OVC065,0.00,VWS V13.01,2013-03-13 20:26:00,
2013-03-13 16:31:00,44.4,23.9,29.90,West,266,15.4,19.3,44,0.00,,OVC065,0.00,VWS V13.01,2013-03-13 20:31:00,
2013-03-13 16:36:00,44.2,23.7,29.90,WSW,258,15.9,19.3,44,0.00,,BKN085,0.00,VWS V13.01,2013-03-13 20:36:00,
2013-03-13 16:41:00,44.1,23.6,29.93,WNW,295,12.6,15.4,44,0.00,,BKN085,0.00,VWS V13.01,2013-03-13 20:41:00,
2013-03-13 16:46:00,44.2,23.7,29.93,WNW,282,10.9,18.7,44,0.00,,BKN085,0.00,VWS V13.01,2013-03-13 20:46:00,
2013-03-13 16:51:00,44.1,23.6,29.93,WNW,287,12.6,14.3,44,0.00,,BKN085,0.00,VWS V13.01,2013-03-13 20:51:00,
2013-03-13 16:56:00,43.5,23.1,29.93,SW,235,12.6,15.4,44,0.00,,SCT090,0.00,VWS V13.01,2013-03-13 20:56:00,
2013-03-13 17:01:00,43.5,23.1,29.93,West,262,10.1,17.1,44,0.00,,SCT090,0.00,VWS V13.01,2013-03-13 21:01:00,
2013-03-13 17:06:00,43.0,22.6,29.93,West,259,7.8,16.5,44,0.00,,SCT090,0.00,VWS V13.01,2013-03-13 21:06:00,
2013-03-13 17:11:00,42.1,22.3,29.93,West,270,12.6,15.9,45,0.00,,SCT090,0.00,VWS V13.01,2013-03-13 21:11:00,
2013-03-13 17:16:00,42.1,22.3,29.93,NW,323,12.6,18.7,45,0.00,,SCT090,0.00,VWS V13.01,2013-03-13 21:16:00,
2013-03-13 17:21:00,41.9,22.1,29.93,WSW,239,14.3,14.3,45,0.00,,SCT090,0.00,VWS V13.01,2013-03-13 21:21:00,
2013-03-13 17:26:00,41.5,21.8,29.93,WNW,291,10.9,15.9,45,0.00,,SCT090,0.00,VWS V13.01,2013-03-13 21:26:00,
2013-03-13 17:31:00,41.4,21.6,29.93,West,271,18.2,18.2,45,0.00,,SCT090,0.00,VWS V13.01,2013-03-13 21:31:00,
2013-03-13 17:36:00,41.2,21.5,29.93,West,264,14.8,18.7,45,0.00,,BKN080,0.00,VWS V13.01,2013-03-13 21:36:00,
2013-03-13 17:41:00,41.0,21.3,29.93,WSW,254,12.6,13.7,45,0.00,,BKN080,0.00,VWS V13.01,2013-03-13 21:41:00,
2013-03-13 17:46:00,41.0,21.3,29.93,West,268,10.9,12.6,45,0.00,,BKN080,0.00,VWS V13.01,2013-03-13 21:46:00,
2013-03-13 17:51:00,40.8,21.1,29.93,West,281,12.6,15.9,45,0.00,,BKN080,0.00,VWS V13.01,2013-03-13 21:51:00,
2013-03-13 17:56:00,40.6,21.0,29.96,WSW,257,10.3,15.4,45,0.00,,OVC080,0.00,VWS V13.01,2013-03-13 21:56:00,
2013-03-13 18:01:00,39.7,20.1,29.96,North,357,21.0,21.0,45,0.00,,OVC080,0.00,VWS V13.01,2013-03-13 22:01:00,
2013-03-13 18:06:00,37.9,18.5,29.96,ENE,65,7.8,12.0,45,0.00,,OVC080,0.00,VWS V13.01,2013-03-13 22:06:00,
2013-03-13 18:11:00,37.2,18.4,29.96,WSW,257,10.9,13.7,46,0.00,,OVC080,0.00,VWS V13.01,2013-03-13 22:11:00,
2013-03-13 18:16:00,37.0,18.2,29.96,WSW,251,15.9,16.5,46,0.00,,BKN080,0.00,VWS V13.01,2013-03-13 22:16:00,
2013-03-13 18:21:00,37.2,18.4,29.96,West,270,10.1,18.7,46,0.00,,BKN080,0.00,VWS V13.01,2013-03-13 22:21:00,
2013-03-13 18:27:00,37.0,18.2,29.96,WSW,256,17.6,18.2,46,0.00,,BKN080,0.00,VWS V13.01,2013-03-13 22:27:00,
2013-03-13 18:32:00,36.7,17.9,29.96,WNW,286,7.3,13.1,46,0.00,,BKN080,0.00,VWS V13.01,2013-03-13 22:32:00,
2013-03-13 18:37:00,36.1,17.4,29.99,WNW,283,15.9,17.1,46,0.00,,BKN080,0.00,VWS V13.01,2013-03-13 22:37:00,
2013-03-13 18:42:00,36.0,17.2,29.99,West,275,7.8,12.6,46,0.00,,BKN080,0.00,VWS V13.01,2013-03-13 22:42:00,
2013-03-13 18:47:00,35.8,17.0,29.99,WSW,251,9.5,15.9,46,0.00,,BKN080,0.00,VWS V13.01,2013-03-13 22:47:00,
2013-03-13 18:52:00,35.8,17.0,29.99,WSW,251,9.5,13.1,46,0.00,,BKN080,0.00,VWS V13.01,2013-03-13 22:52:00,
2013-03-13 18:57:00,35.6,16.9,29.99,West,270,10.9,13.7,46,0.00,,OVC080,0.00,VWS V13.01,2013-03-13 22:57:00,
2013-03-13 19:02:00,35.4,16.7,29.99,WSW,255,10.9,13.7,46,0.00,,OVC080,0.00,VWS V13.01,2013-03-13 23:02:00,
2013-03-13 19:07:00,35.1,16.4,29.99,NW,317,15.9,19.3,46,0.00,,OVC080,0.00,VWS V13.01,2013-03-13 23:07:00,
2013-03-13 19:12:00,34.7,16.0,29.99,WSW,254,15.4,15.9,46,0.00,,OVC080,0.00,VWS V13.01,2013-03-13 23:12:00,
2013-03-13 19:17:00,34.3,15.7,29.99,West,272,16.5,16.5,46,0.00,,OVC060,0.00,VWS V13.01,2013-03-13 23:17:00,
2013-03-13 19:22:00,34.2,15.6,29.99,NNW,328,13.7,21.0,46,0.00,,OVC060,0.00,VWS V13.01,2013-03-13 23:22:00,
2013-03-13 19:27:00,34.0,15.4,29.99,West,270,12.6,15.9,46,0.00,,OVC060,0.00,VWS V13.01,2013-03-13 23:27:00,
2013-03-13 19:32:00,34.0,15.4,29.99,WSW,238,10.9,13.7,46,0.00,,OVC060,0.00,VWS V13.01,2013-03-13 23:32:00,
2013-03-13 19:37:00,34.0,15.4,30.02,North,0,10.1,16.5,46,0.00,,BKN050,0.00,VWS V13.01,2013-03-13 23:37:00,
2013-03-13 19:42:00,33.6,15.6,30.02,NNE,21,10.3,11.5,47,0.00,,BKN050,0.00,VWS V13.01,2013-03-13 23:42:00,
2013-03-13 19:47:00,33.6,15.6,30.02,West,269,7.8,10.1,47,0.00,,BKN050,0.00,VWS V13.01,2013-03-13 23:47:00,
2013-03-13 19:52:00,33.4,15.4,30.02,North,10,7.3,13.1,47,0.00,,BKN050,0.00,VWS V13.01,2013-03-13 23:52:00,
2013-03-13 19:57:00,33.3,15.2,30.02,North,357,9.5,12.6,47,0.00,,BKN050,0.00,VWS V13.01,2013-03-13 23:57:00,
2013-03-13 20:02:00,33.1,15.1,30.02,WSW,244,19.3,19.3,47,0.00,,BKN050,0.00,VWS V13.01,2013-03-14 00:02:00,
2013-03-13 20:07:00,33.1,15.1,30.02,West,263,13.1,16.5,47,0.00,,SCT050,0.00,VWS V13.01,2013-03-14 00:07:00,
2013-03-13 20:12:00,32.9,14.9,30.02,West,281,7.8,9.5,47,0.00,,SCT050,0.00,VWS V13.01,2013-03-14 00:12:00,
2013-03-13 20:17:00,32.7,14.7,30.02,WNW,282,13.1,13.7,47,0.00,,SCT050,0.00,VWS V13.01,2013-03-14 00:17:00,
2013-03-13 20:22:00,32.7,14.7,30.02,West,264,10.3,12.6,47,0.00,,BKN060,0.00,VWS V13.01,2013-03-14 00:22:00,
2013-03-13 20:27:00,32.5,14.6,30.02,WSW,249,11.5,14.3,47,0.00,,BKN060,0.00,VWS V13.01,2013-03-14 00:27:00,
2013-03-13 20:32:00,32.4,14.4,30.02,West,268,9.5,12.6,47,0.00,,BKN060,0.00,VWS V13.01,2013-03-14 00:32:00,
2013-03-13 20:37:00,32.2,14.2,30.02,West,272,7.3,12.0,47,0.00,,BKN060,0.00,VWS V13.01,2013-03-14 00:37:00,
2013-03-13 20:42:00,32.2,14.2,30.02,West,265,8.9,13.7,47,0.00,,BKN060,0.00,VWS V13.01,2013-03-14 00:42:00,
2013-03-13 20:47:00,32.2,14.2,30.02,West,273,12.6,13.7,47,0.00,,BKN060,0.00,VWS V13.01,2013-03-14 00:47:00,
2013-03-13 20:52:00,32.2,14.2,30.05,West,278,10.3,13.1,47,0.00,,BKN060,0.00,VWS V13.01,2013-03-14 00:52:00,
2013-03-13 20:57:00,32.0,14.1,30.05,West,272,9.5,12.0,47,0.00,,BKN060,0.00,VWS V13.01,2013-03-14 00:57:00,
2013-03-13 21:02:00,31.8,13.9,30.05,WNW,291,13.1,13.1,47,0.00,,BKN060,0.00,VWS V13.01,2013-03-14 01:02:00,
2013-03-13 21:07:00,31.8,13.9,30.05,NNW,335,3.4,10.1,47,0.00,,BKN060,0.00,VWS V13.01,2013-03-14 01:07:00,
2013-03-13 21:12:00,31.8,13.9,30.05,NW,314,10.3,10.3,47,0.00,,BKN060,0.00,VWS V13.01,2013-03-14 01:12:00,
2013-03-13 21:17:00,31.6,13.7,30.05,West,280,9.5,12.6,47,0.00,,BKN060,0.00,VWS V13.01,2013-03-14 01:17:00,
2013-03-13 21:22:00,31.6,13.7,30.05,NNW,337,7.8,12.0,47,0.00,,OVC070,0.00,VWS V13.01,2013-03-14 01:22:00,
2013-03-13 21:28:00,31.6,13.7,30.05,WNW,290,6.7,9.5,47,0.00,,OVC070,0.00,VWS V13.01,2013-03-14 01:28:00,
2013-03-13 21:33:00,31.8,13.9,30.05,West,278,10.3,12.6,47,0.00,,OVC070,0.00,VWS V13.01,2013-03-14 01:33:00,
2013-03-13 21:38:00,31.8,13.9,30.05,West,270,7.3,9.5,47,0.00,,OVC070,0.00,VWS V13.01,2013-03-14 01:38:00,
2013-03-13 21:43:00,31.6,13.7,30.05,WSW,254,6.2,7.3,47,0.00,,OVC060,0.00,VWS V13.01,2013-03-14 01:43:00,
2013-03-13 21:48:00,31.5,13.6,30.05,WNW,289,4.5,6.7,47,0.00,,OVC060,0.00,VWS V13.01,2013-03-14 01:48:00,
2013-03-13 21:53:00,31.1,13.2,30.05,West,275,4.5,7.8,47,0.00,,OVC060,0.00,VWS V13.01,2013-03-14 01:53:00,
2013-03-13 21:58:00,30.9,13.1,30.05,West,260,7.3,8.4,47,0.00,,OVC065,0.00,VWS V13.01,2013-03-14 01:58:00,
2013-03-13 22:03:00,30.7,12.9,30.05,West,281,6.7,7.3,47,0.00,,OVC065,0.00,VWS V13.01,2013-03-14 02:03:00,
2013-03-13 22:08:00,30.7,12.9,30.05,NNW,332,3.9,5.0,47,0.00,,OVC065,0.00,VWS V13.01,2013-03-14 02:08:00,
2013-03-13 22:13:00,30.6,12.7,30.05,WSW,251,10.9,12.0,47,0.00,,OVC065,0.00,VWS V13.01,2013-03-14 02:13:00,
2013-03-13 22:18:00,30.6,12.7,30.05,WSW,249,6.7,7.3,47,0.00,,OVC065,0.00,VWS V13.01,2013-03-14 02:18:00,
2013-03-13 22:23:00,30.6,12.7,30.05,West,263,7.8,10.9,47,0.00,,OVC065,0.00,VWS V13.01,2013-03-14 02:23:00,
2013-03-13 22:28:00,30.6,12.7,30.05,WNW,295,7.8,10.1,47,0.00,,OVC065,0.00,VWS V13.01,2013-03-14 02:28:00,
2013-03-13 22:33:00,30.6,12.7,30.05,WSW,245,10.9,10.9,47,0.00,,OVC065,0.00,VWS V13.01,2013-03-14 02:33:00,
2013-03-13 22:38:00,30.7,12.9,30.05,West,275,10.9,12.6,47,0.00,,OVC055,0.00,VWS V13.01,2013-03-14 02:38:00,
2013-03-13 22:43:00,30.7,12.9,30.05,West,273,6.7,10.3,47,0.00,,OVC055,0.00,VWS V13.01,2013-03-14 02:43:00,
2013-03-13 22:48:00,30.7,12.9,30.05,WSW,240,10.3,12.6,47,0.00,,OVC055,0.00,VWS V13.01,2013-03-14 02:48:00,
2013-03-13 22:53:00,30.9,13.1,30.05,West,273,10.9,13.1,47,0.00,,OVC055,0.00,VWS V13.01,2013-03-14 02:53:00,
2013-03-13 22:58:00,30.9,13.1,30.05,West,266,10.9,15.4,47,0.00,,OVC055,0.00,VWS V13.01,2013-03-14 02:58:00,
2013-03-13 23:03:00,30.9,13.1,30.05,West,274,5.0,12.6,47,0.00,,OVC055,0.00,VWS V13.01,2013-03-14 03:03:00,
2013-03-13 23:08:00,30.9,13.1,30.05,SW,223,10.9,12.0,47,0.00,,OVC055,0.00,VWS V13.01,2013-03-14 03:08:00,
2013-03-13 23:13:00,30.9,13.1,30.05,West,276,6.2,8.9,47,0.00,,OVC055,0.00,VWS V13.01,2013-03-14 03:13:00,
2013-03-13 23:18:00,30.7,12.9,30.05,WSW,253,6.2,7.8,47,0.00,,OVC050,0.00,VWS V13.01,2013-03-14 03:18:00,
2013-03-13 23:23:00,30.7,12.9,30.05,West,266,10.1,10.1,47,0.00,,OVC050,0.00,VWS V13.01,2013-03-14 03:23:00,
2013-03-13 23:28:00,30.9,13.1,30.05,West,279,10.1,13.7,47,0.00,,OVC050,0.00,VWS V13.01,2013-03-14 03:28:00,
2013-03-13 23:33:00,31.1,13.2,30.05,NNE,29,8.9,9.5,47,0.00,,OVC050,0.00,VWS V13.01,2013-03-14 03:33:00,
2013-03-13 23:38:00,31.1,13.2,30.05,West,261,10.3,13.7,47,0.00,,OVC050,0.00,VWS V13.01,2013-03-14 03:38:00,
2013-03-13 23:43:00,31.1,13.2,30.05,West,260,13.7,16.5,47,0.00,,OVC050,0.00,VWS V13.01,2013-03-14 03:43:00,
2013-03-13 23:48:00,31.1,13.2,30.05,WNW,293,7.3,12.0,47,0.00,,OVC050,0.00,VWS V13.01,2013-03-14 03:48:00,
2013-03-13 23:53:00,31.1,13.2,30.05,NW,307,6.7,15.9,47,0.00,,OVC050,0.00,VWS V13.01,2013-03-14 03:53:00,
2013-03-13 23:58:00,31.1,13.2,30.05,West,265,8.4,10.3,47,0.00,,OVC060,0.00,VWS V13.01,2013-03-14 03:58:00,